[[{"header":{"parameterUnit":"m.s-1","parameterCategory":1,"la1":30.2991,"la2":30.254,"lo1":-89.0895,"lo2":-89.0444,"dy":0.0017,"dx":0.0017,"nx":28,"ny":28,"refTime":"2025-01-03T09:00:00:Z","depth":0,"parameterNumber":2,"parameterNumberName":"U-component_of_WINDS"},"data":[0,0,0,0,0,0,0,0,0,0,0,0,0,0,0,0,0,0,0,0,0,0,0,0,0,0,0,0,0,0,0,0,0,0,0,0,0,0,0,0,0,0,0,0,0,0,0,0,0,0,0,0,0,0,0,0,0,0,-2.6807,-2.6808,0,-2.6837,-2.6837,-2.6837,-2.6765,-2.6763,-2.6761,-2.6759,-2.6788,-2.6791,-2.6794,0,0,0,0,0,0,0,0,0,0,0,0,0,-2.6687,-2.669,-2.6807,-2.6808,-2.6808,-2.6837,-2.6837,-2.6837,-2.6766,-2.6763,-2.676,-2.6758,-2.6788,-2.6791,-2.6794,0,0,0,0,0,0,0,0,0,0,0,0,0,-2.673,-2.6691,-2.6807,-2.6776,-2.6773,-2.6837,-2.6837,-2.6838,-2.6766,-2.6763,-2.676,-2.6756,-2.6786,-2.6791,-2.6795,-2.689,0,0,-2.6808,-2.681,0,0,0,0,0,0,0,0,-2.6728,-2.6735,-2.678,-2.6778,-2.6775,-2.6794,-2.6806,-2.6855,-2.6767,-2.6769,-2.6759,-2.6755,-2.6793,-2.6797,-2.681,-2.6892,-2.6893,-2.6809,-2.6811,-2.6813,-2.6814,0,0,0,0,0,0,0,-2.6725,-2.6733,-2.6819,-2.6781,-2.6778,-2.6759,-2.6762,-2.6815,-2.68,-2.6769,-2.6763,-2.6768,-2.6791,-2.6806,-2.681,-2.6893,-2.6809,-2.6812,-2.6815,-2.6817,-2.7053,-2.7057,0,0,0,0,0,0,-2.6726,-2.6731,-2.6818,-2.682,-2.6743,-2.6764,-2.6767,-2.6791,-2.6799,-2.6797,-2.6771,-2.6764,-2.68,-2.6805,-2.6811,-2.6921,-2.6813,-2.6817,-2.682,-2.7049,-2.7054,-2.7058,0,0,0,0,0,0,-2.6724,-2.6735,-2.6817,-2.6774,-2.6783,-2.677,-2.6798,-2.6794,-2.6808,-2.6801,-2.6797,-2.6788,-2.6797,-2.6804,-2.6871,-2.6922,-2.6819,-2.6823,-2.7045,-2.7051,-2.7056,-2.7145,0,0,0,0,0,0,-2.6721,-2.6734,-2.6771,-2.6775,-2.6786,-2.6877,-2.6801,-2.6797,-2.6816,-2.6808,-2.6816,-2.6815,-2.6795,-2.6864,-2.6875,-2.6926,-2.6827,-2.704,-2.7048,-2.7054,-2.7138,-2.7153,-2.7166,0,0,0,0,0,-2.6717,-2.6795,-2.6773,-2.6784,-2.6831,-2.688,-2.6886,-2.6862,-2.682,-2.6857,-2.6851,-2.6814,-2.6914,-2.6872,-2.6883,-2.6936,-2.7037,-2.7046,-2.7054,-2.7131,-2.715,-2.7166,0,0,0,0,0,0,-2.6797,-2.6795,-2.6771,-2.6853,-2.6867,-2.6868,-2.6913,-2.6883,-2.6909,-2.6901,-2.687,-2.6872,-2.6944,-2.6947,-2.6899,-2.7028,-2.6968,-2.6979,-2.7024,-2.7041,-2.7055,-2.7053,-2.683,0,0,0,0,0,-2.6824,-2.6865,-2.686,-2.6933,-2.6942,-2.6926,-2.6947,-2.6927,-2.6941,-2.6946,-2.6946,-2.696,-2.6995,-2.7018,-2.705,-2.7137,-2.7138,-2.7179,-2.7193,-2.7205,-2.7215,-2.726,-2.7278,-2.7085,-2.7085,-2.7085,0,0,-2.6881,-2.6885,-2.6912,-2.6949,-2.6958,-2.7,-2.6932,-2.6979,-2.701,-2.6953,-2.7016,-2.7016,-2.703,-2.7107,-2.7141,-2.7111,-2.7268,-2.7216,-2.7225,-2.7228,-2.7271,-2.7289,-2.7305,-2.709,-2.7089,-2.7088,0,0,-2.7006,-2.7013,-2.7074,-2.7084,-2.7098,-2.7087,-2.7101,-2.7107,-2.7105,-2.7167,-2.7125,-2.716,-2.7221,-2.7232,-2.7245,-2.7373,-2.7339,-2.7384,-2.7459,-2.7503,-2.7519,-2.7532,-2.7577,-2.7593,-2.7394,-2.7394,-2.7394,0,-2.7074,-2.7136,-2.7109,-2.7159,-2.7176,-2.7127,-2.7188,-2.7198,-2.7222,-2.7235,-2.7201,-2.7275,-2.7281,-2.7359,-2.739,-2.7403,-2.7418,-2.7383,-2.7519,-2.7532,-2.7544,-2.7586,-2.7603,-2.7399,-2.7399,-2.7398,-2.7398,0,-2.7219,-2.7263,-2.731,-2.7334,-2.7356,-2.7412,-2.7392,-2.7418,-2.7396,-2.7389,-2.7452,-2.7457,-2.7488,-2.7505,-2.7484,-2.758,-2.7561,-2.7524,-2.7464,-2.7568,-2.7607,-2.7623,-2.7407,-2.7405,-2.7403,-2.7402,0,0,-2.7396,-2.7403,-2.7421,-2.7431,-2.7442,-2.7475,-2.7527,-2.7557,-2.758,-2.7597,-2.764,-2.7692,-2.7657,-2.7672,-2.7652,-2.7691,-2.7791,-2.7649,-2.7648,-2.7674,-2.7896,-2.7924,-2.7943,-2.7769,-2.7772,-2.7774,-2.7894,0,-2.7519,-2.7609,-2.7586,-2.7675,-2.7714,-2.7667,-2.7713,-2.7724,-2.7718,-2.775,-2.7743,-2.778,-2.7731,-2.774,-2.7777,-2.7771,-2.7835,-2.7762,-2.7807,-2.7809,-2.7805,-2.7964,-2.7994,-2.8107,-2.791,-2.7912,-2.7914,0,-2.7674,-2.7697,-2.7791,-2.7794,-2.781,-2.7851,-2.7876,-2.7908,-2.7919,-2.7912,-2.7929,-2.7901,-2.7951,-2.7891,-2.796,-2.7911,-2.7928,-2.7928,-2.7932,-2.7935,-2.7868,-2.7971,-2.8143,-2.816,-2.7938,-2.7936,-2.7935,0,-2.7793,-2.7848,-2.791,-2.792,-2.7926,-2.7956,-2.796,-2.7968,-2.7987,-2.8009,-2.8021,-2.8049,-2.8064,-2.8085,-2.8065,-2.8023,-2.8137,-2.8075,-2.8132,-2.8132,-2.8158,-2.8157,-2.8335,-2.817,-2.817,-2.8169,-2.8169,0,-2.7932,-2.7991,-2.7963,-2.8002,-2.8066,-2.8038,-2.8103,-2.8101,-2.8108,-2.8145,-2.8106,-2.8141,-2.8112,-2.8145,-2.8129,-2.8189,-2.8196,-2.8191,-2.8186,-2.8194,-2.8195,-2.8205,-2.8196,-2.8174,-2.8173,-2.8172,-2.8171,0,-2.8076,-2.806,-2.8125,-2.8125,-2.8126,-2.8173,-2.8173,-2.8208,-2.8199,-2.8246,-2.8255,-2.8241,-2.8277,-2.8259,-2.8297,-2.8286,-2.8362,-2.8347,-2.8358,-2.8354,-2.8412,-2.8406,-2.8603,-2.8627,-2.8446,-2.8448,-2.845,0,-2.8166,-2.821,-2.8214,-2.8236,-2.8242,-2.8278,-2.8297,-2.8271,-2.8293,-2.8308,-2.8342,-2.8374,-2.8399,-2.8459,-2.8452,-2.848,-2.8465,-2.8531,-2.8469,-2.8475,-2.8465,-2.8462,-2.8466,-2.8544,-2.8546,-2.8548,-2.8549,0,-2.8327,-2.8316,-2.8346,-2.8372,-2.8396,-2.8415,-2.8431,-2.8451,-2.8425,-2.8451,-2.8488,-2.8507,-2.8545,-2.8578,-2.8602,-2.8605,-2.8573,-2.8569,-2.8583,-2.8592,-2.8597,-2.8594,-2.8392,-2.8565,-2.8563,-2.8562,-2.8561,-2.8561,-2.8446,-2.8483,-2.8491,-2.8524,-2.8534,-2.8549,-2.8582,-2.8576,-2.8606,-2.8635,-2.8617,-2.866,-2.8669,-2.8698,-2.8705,-2.8738,-2.8711,-2.8732,-2.8738,-2.8743,-2.8751,-2.8592,-2.8742,-2.8742,-2.8741,-2.8741,-2.8741,0,-2.8604,-2.8607,-2.8638,-2.8662,-2.8688,-2.8655,-2.867,-2.8694,-2.8732,-2.8743,-2.8768,-2.881,-2.8841,-2.8835,-2.8863,-2.889,-2.8876,-2.8899,-2.8896,-2.8897,-2.8773,-2.8758,-2.891,-2.891,-2.891,-2.8909,-2.8909,-2.8909,-2.869,-2.875,-2.874,-2.8803,-2.8805,-2.8847,-2.8858,-2.8872,-2.8881,-2.8929,-2.8954,-2.895,-2.8954,-2.8982,-2.9009,-2.9007,-2.9019,-2.9046,-2.9039,-2.8923,-2.8906,-2.889,-2.8875,-2.9049,-2.905,-2.916,-2.9161,-2.9161]},{"header":{"parameterUnit":"m.s-1","parameterCategory":1,"la1":30.2991,"la2":30.254,"lo1":-89.0895,"lo2":-89.0444,"dy":0.0017,"dx":0.0017,"nx":28,"ny":28,"refTime":"2025-01-03T09:00:00:Z","depth":0,"parameterNumber":3,"parameterNumberName":"V-component_of_WINDS"},"data":[0,0,0,0,0,0,0,0,0,0,0,0,0,0,0,0,0,0,0,0,0,0,0,0,0,0,0,0,0,0,0,0,0,0,0,0,0,0,0,0,0,0,0,0,0,0,0,0,0,0,0,0,0,0,0,0,0,0,0.0548,0.0548,0,0.0555,0.0555,0.0555,0.0539,0.0539,0.0538,0.0538,0.0543,0.0543,0.0544,0,0,0,0,0,0,0,0,0,0,0,0,0,0.0521,0.0522,0.0548,0.0548,0.0548,0.0555,0.0555,0.0555,0.0539,0.0539,0.0538,0.0537,0.0543,0.0543,0.0544,0,0,0,0,0,0,0,0,0,0,0,0,0,0.0531,0.0522,0.0548,0.0541,0.0541,0.0555,0.0555,0.0555,0.0539,0.0538,0.0538,0.0537,0.0542,0.0543,0.0544,0.0565,0,0,0.0547,0.0547,0,0,0,0,0,0,0,0,0.053,0.0532,0.0542,0.0542,0.0541,0.0545,0.0547,0.0558,0.0539,0.054,0.0538,0.0537,0.0544,0.0545,0.0548,0.0565,0.0565,0.0547,0.0548,0.0548,0.0548,0,0,0,0,0,0,0,0.0529,0.0531,0.055,0.0542,0.0542,0.0538,0.0538,0.0549,0.0546,0.054,0.0538,0.054,0.0544,0.0547,0.0548,0.0565,0.0547,0.0548,0.0548,0.0549,0.0601,0.0602,0,0,0,0,0,0,0.053,0.0531,0.055,0.0551,0.0534,0.0539,0.0539,0.0545,0.0546,0.0545,0.054,0.0539,0.0546,0.0547,0.0548,0.0573,0.0548,0.0549,0.0549,0.06,0.0601,0.0602,0,0,0,0,0,0,0.0529,0.0532,0.055,0.054,0.0543,0.054,0.0546,0.0545,0.0548,0.0546,0.0545,0.0544,0.0545,0.0547,0.0561,0.0573,0.0549,0.055,0.0599,0.06,0.0601,0.0622,0,0,0,0,0,0,0.0529,0.0532,0.0539,0.0541,0.0543,0.0563,0.0547,0.0546,0.055,0.0548,0.055,0.0549,0.0545,0.056,0.0562,0.0574,0.0551,0.0598,0.06,0.0601,0.0621,0.0624,0.0627,0,0,0,0,0,0.0528,0.0544,0.054,0.0542,0.0553,0.0564,0.0565,0.056,0.0551,0.0559,0.0558,0.0549,0.0571,0.0561,0.0564,0.0576,0.0597,0.0599,0.0601,0.0619,0.0623,0.0627,0,0,0,0,0,0,0.0543,0.0544,0.0539,0.0557,0.0561,0.0561,0.0571,0.0565,0.057,0.0569,0.0562,0.0562,0.0578,0.0578,0.0567,0.0596,0.0583,0.0585,0.0596,0.06,0.0603,0.0603,0.0551,0,0,0,0,0,0.0549,0.0558,0.0558,0.0574,0.0576,0.0573,0.0578,0.0574,0.0577,0.0578,0.0578,0.0582,0.0589,0.0594,0.0601,0.0621,0.0621,0.063,0.0633,0.0636,0.0638,0.065,0.0654,0.0608,0.0608,0.0608,0,0,0.056,0.0562,0.0568,0.0577,0.0579,0.0589,0.0575,0.0585,0.0593,0.058,0.0594,0.0594,0.0597,0.0615,0.0622,0.0615,0.0651,0.0639,0.0641,0.0642,0.0652,0.0657,0.0661,0.0609,0.0609,0.0609,0,0,0.0586,0.0588,0.0602,0.0605,0.0609,0.0608,0.0611,0.0613,0.0613,0.0627,0.0618,0.0627,0.064,0.0643,0.0646,0.0675,0.0668,0.0678,0.0695,0.0706,0.071,0.0713,0.0724,0.0728,0.068,0.068,0.068,0,0.0599,0.0614,0.0609,0.0621,0.0626,0.0616,0.063,0.0633,0.0639,0.0643,0.0635,0.0653,0.0654,0.0673,0.068,0.0682,0.0687,0.0678,0.071,0.0713,0.0716,0.0727,0.0731,0.0681,0.0681,0.0681,0.0681,0,0.0631,0.0642,0.0652,0.066,0.0665,0.0678,0.0676,0.0682,0.0678,0.0677,0.0692,0.0694,0.0702,0.0706,0.0701,0.0724,0.072,0.0711,0.0697,0.0722,0.0732,0.0736,0.0683,0.0683,0.0682,0.0682,0,0,0.0666,0.0672,0.0676,0.068,0.0685,0.0693,0.0705,0.0714,0.072,0.0725,0.0736,0.0748,0.0741,0.0744,0.074,0.075,0.0774,0.074,0.074,0.0747,0.0801,0.0808,0.0812,0.0769,0.077,0.0771,0.0801,0,0.0692,0.0715,0.0712,0.0734,0.0744,0.0736,0.0747,0.0751,0.0751,0.076,0.0759,0.0769,0.0758,0.076,0.077,0.0769,0.0785,0.0767,0.078,0.078,0.078,0.0817,0.0824,0.0853,0.0805,0.0805,0.0806,0,0.0726,0.0733,0.0757,0.0762,0.0766,0.0776,0.0784,0.0793,0.0798,0.0797,0.0802,0.0797,0.081,0.0796,0.0814,0.0802,0.0807,0.0808,0.0809,0.081,0.0795,0.082,0.0861,0.0866,0.0811,0.0811,0.0811,0,0.075,0.0766,0.0782,0.0786,0.0792,0.0799,0.0802,0.0806,0.0812,0.0819,0.0823,0.0831,0.0836,0.0842,0.0839,0.0829,0.0859,0.0844,0.0859,0.0859,0.0865,0.0865,0.0908,0.0868,0.0868,0.0867,0.0867,0,0.078,0.0795,0.0794,0.0804,0.082,0.0817,0.0833,0.0835,0.0839,0.085,0.0842,0.0852,0.0847,0.0857,0.0855,0.0871,0.0873,0.0873,0.0872,0.0874,0.0874,0.0877,0.0875,0.0869,0.0868,0.0868,0.0868,0,0.0809,0.0809,0.0827,0.0832,0.0833,0.0845,0.0849,0.0859,0.0859,0.0872,0.0875,0.0875,0.0886,0.0884,0.0895,0.0894,0.0914,0.0911,0.0913,0.0913,0.0928,0.0926,0.0975,0.0981,0.0936,0.0936,0.0937,0,0.0829,0.084,0.0847,0.0854,0.0858,0.0869,0.0875,0.0872,0.0879,0.0887,0.0896,0.0906,0.0915,0.0933,0.0933,0.0943,0.094,0.0956,0.0941,0.0943,0.0941,0.094,0.0942,0.0959,0.096,0.096,0.096,0,0.0864,0.0863,0.0873,0.0884,0.0892,0.09,0.0907,0.0913,0.0911,0.0919,0.0931,0.0937,0.095,0.0961,0.097,0.0972,0.0966,0.0965,0.0969,0.0971,0.0972,0.0973,0.0922,0.0964,0.0964,0.0963,0.0963,0.0963,0.0889,0.09,0.0907,0.0918,0.0924,0.0931,0.0941,0.0943,0.0953,0.0964,0.0961,0.0975,0.0981,0.0992,0.0996,0.1006,0.1,0.1006,0.1007,0.1009,0.1011,0.0971,0.1008,0.1008,0.1007,0.1007,0.1007,0,0.0924,0.0929,0.094,0.0951,0.096,0.0954,0.0962,0.097,0.0983,0.0989,0.0998,0.1012,0.1023,0.1025,0.1036,0.1044,0.1041,0.1047,0.1046,0.1047,0.1015,0.1011,0.1049,0.1049,0.1049,0.1049,0.1049,0.1049,0.0944,0.0962,0.0963,0.0983,0.0987,0.1002,0.1007,0.1013,0.1019,0.1035,0.1045,0.1046,0.1051,0.1062,0.1072,0.1072,0.1077,0.1084,0.1083,0.1053,0.1049,0.1045,0.1041,0.1084,0.1084,0.1114,0.1114,0.1114]}]]